OE9FWV Weather Reports


time (UTC)temp
C
wind
direction
speed
KPH
gust
KPH
rain 1hr
cm
rain 24hr
cm
rain mn
cm
humidity
%
barometer
mb
20260507002726 10 352 0.0 1.6 0.00 0.13 0.00 91 1011.2
20260507001725 10 352 0.0 0.0 0.00 0.10 0.00 91 1011.2
20260507000719 10 352 0.0 1.6 0.00 0.10 0.00 91 1011.2
20260506235904 10 352 0.0 0.0 0.00 0.10 0.00 90 1011.3
20260506235710 10 352 0.0 0.0 0.00 0.10 0.00 90 1011.3
20260506234703 10 352 0.0 0.0 0.00 0.08 0.00 90 1011.3
20260506233703 10 352 0.0 0.0 0.10 0.08 0.00 89 1011.4
20260506232703 10 352 0.0 0.0 0.43 0.08 0.00 89 1011.3
20260506230655 10 352 0.0 1.6 0.00 0.00 0.00 88 1011.3
20260506225652 10 353 3.2 3.2 0.00 0.00 0.00 88 1011.2
20260506224652 10 29 3.2 3.2 0.00 0.00 0.00 88 1011.2
20260506214634 10 30 0.0 0.0 0.00 0.00 0.00 86 1010.9
20260506213630 10 30 0.0 0.0 0.00 0.00 0.00 86 1010.8
20260506212627 10 30 0.0 0.0 0.00 0.00 0.00 86 1010.9
20260506211624 10 30 0.0 0.0 0.00 0.00 0.00 86 1010.9
20260506210622 11 30 0.0 0.0 0.00 0.00 0.00 85 1010.9
20260506204616 11 30 0.0 0.0 0.00 0.00 0.00 85 1010.7
20260506203613 11 30 0.0 0.0 0.00 0.00 0.00 85 1010.7
20260506202608 11 30 0.0 0.0 0.00 0.00 0.00 85 1010.7
20260506195556 11 30 0.0 0.0 0.00 0.00 0.00 85 1010.4
20260506194556 11 30 0.0 0.0 0.00 0.00 0.00 84 1010.2
20260506191541 11 30 0.0 0.0 0.00 0.00 0.00 81 1009.8
20260506190541 11 30 0.0 0.0 0.00 0.00 0.00 81 1009.8
20260506185541 11 30 0.0 0.0 0.00 0.00 0.00 81 1009.4
20260506184541 11 30 0.0 0.0 0.00 0.00 0.00 81 1009.4
20260506183535 11 30 0.0 0.0 0.00 0.00 0.00 81 1009.1
20260506182526 11 30 0.0 0.0 0.00 0.00 0.00 80 1009.0
20260506181521 12 30 0.0 0.0 0.00 0.00 0.00 80 1009.1
20260506180518 12 30 0.0 0.0 0.00 0.00 0.00 80 1008.8
20260506175514 12 30 0.0 0.0 0.00 0.00 0.00 80 1008.7
20260506174506 12 30 0.0 1.6 0.00 0.00 0.00 80 1008.8
20260506173506 11 30 0.0 3.2 0.00 0.00 0.00 80 1008.6
20260506171500 12 10 8.0 11.3 0.00 0.00 0.00 80 1008.5
20260506170455 12 2 8.0 12.9 0.00 0.00 0.00 79 1008.5
20260506165451 12 329 4.8 17.7 0.00 0.00 0.00 80 1008.3
20260506162443 12 301 8.0 12.9 0.00 0.00 0.00 78 1007.7
20260506161436 12 119 4.8 4.8 0.00 0.00 0.00 78 1007.6
20260506160431 11 101 12.9 12.9 0.00 0.00 0.00 81 1007.8
20260506155427 11 81 11.3 12.9 0.00 0.00 0.00 81 1007.8
20260506154418 11 29 8.0 16.1 0.00 0.00 0.00 82 1008.1
20260506153406 11 185 3.2 3.2 0.00 0.00 0.00 82 1008.3
20260506152406 11 185 1.6 9.7 0.00 0.00 0.00 80 1008.3
20260506151404 12 175 12.9 24.1 0.00 0.00 0.00 76 1008.2
20260506150358 13 239 27.4 29.0 0.00 0.00 0.00 67 1007.5
20260506145354 14 254 25.7 25.7 0.00 0.00 0.00 61 1007.0
20260506144350 15 75 14.5 19.3 0.00 0.00 0.00 64 1006.7
20260506143342 16 126 16.1 22.5 0.00 0.00 0.00 61 1006.4
20260506142338 17 283 3.2 3.2 0.00 0.00 0.00 57 1005.9
20260506141338 17 293 9.7 16.1 0.00 0.00 0.00 55 1005.6
20260506140333 18 354 8.0 19.3 0.00 0.00 0.00 54 1005.3
20260506135324 19 324 14.5 29.0 0.00 0.00 0.00 59 1005.4
20260506133314 19 332 6.4 17.7 0.00 0.00 0.00 61 1005.1
20260506130305 20 11 8.0 12.9 0.00 0.00 0.00 58 1005.0
20260506125301 20 336 11.3 11.3 0.00 0.00 0.00 61 1004.9
20260506124257 18 339 6.4 11.3 0.00 0.00 0.00 63 1004.9
20260506123248 17 352 1.6 6.4 0.00 0.00 0.00 66 1005.0
20260506122244 16 352 3.2 8.0 0.00 0.00 0.00 68 1005.1
20260506121239 16 353 6.4 8.0 0.00 0.00 0.00 72 1004.8
20260506120238 15 11 9.7 9.7 0.00 0.00 0.00 71 1005.0
20260506115238 16 347 3.2 4.8 0.00 0.00 0.00 71 1005.4
20260506114235 16 346 1.6 6.4 0.00 0.00 0.00 71 1005.4
20260506113229 16 345 1.6 8.0 0.00 0.00 0.00 70 1005.3
20260506104203 16 334 4.8 12.9 0.00 0.00 0.00 68 1005.2
20260506103203 16 352 6.4 8.0 0.00 0.00 0.00 66 1005.2
20260506102159 17 326 8.0 9.7 0.00 0.00 0.00 67 1005.3
20260506101155 17 322 8.0 11.3 0.00 0.00 0.00 66 1005.4
20260506100151 17 337 6.4 8.0 0.00 0.00 0.00 65 1005.4
20260506095151 17 322 4.8 6.4 0.00 0.00 0.00 65 1005.6
20260506094151 17 336 6.4 8.0 0.00 0.00 0.00 67 1005.6
20260506093148 17 335 8.0 11.3 0.00 0.00 0.00 67 1005.6
20260506091145 16 320 1.6 8.0 0.00 0.00 0.00 70 1005.6
20260506090138 16 308 1.6 4.8 0.00 0.00 0.00 71 1005.6
20260506085130 15 302 1.6 6.4 0.00 0.00 0.00 74 1005.6
20260506084129 15 271 8.0 8.0 0.00 0.00 0.00 78 1005.7
20260506083121 13 266 1.6 1.6 0.00 0.00 0.00 77 1005.5
20260506082113 13 266 0.0 0.0 0.00 0.00 0.00 77 1006.0
20260506081110 13 266 0.0 0.0 0.00 0.00 0.00 77 1005.8
20260506073057 12 266 0.0 0.0 0.00 0.00 0.00 81 1005.8
20260506071055 12 266 0.0 0.0 0.00 0.00 0.00 82 1005.6
20260506062045 11 266 0.0 0.0 0.00 0.00 0.00 83 1005.9
20260506061042 11 266 0.0 0.0 0.00 0.00 0.00 83 1006.2
20260506051020 10 266 0.0 0.0 0.00 0.00 0.00 85 1006.2
20260506041955 10 266 0.0 0.0 0.00 0.00 0.00 85 1006.7
20260506040946 10 266 0.0 0.0 0.00 0.00 0.00 85 1006.7
20260506033936 10 266 0.0 0.0 0.00 0.00 0.00 84 1007.4
20260506025913 10 266 0.0 0.0 0.00 0.00 0.00 83 1007.5
20260506024906 11 266 0.0 0.0 0.00 0.00 0.00 83 1007.7
20260506023906 11 266 0.0 0.0 0.00 0.00 0.00 82 1008.0
20260506022905 11 266 0.0 0.0 0.00 0.00 0.00 82 1008.1
20260506020848 11 266 0.0 0.0 0.00 0.00 0.00 82 1008.2
20260506015847 11 266 0.0 0.0 0.00 0.00 0.00 82 1008.3
20260506013837 11 266 0.0 0.0 0.00 0.00 0.00 81 1008.3
20260506012834 11 266 0.0 0.0 0.00 0.00 0.00 81 1008.4
20260506011826 11 266 0.0 0.0 0.00 0.00 0.00 81 1008.4
20260506004814 11 266 0.0 0.0 0.00 0.00 0.00 81 1008.5
20260506003809 11 266 0.0 0.0 0.00 0.00 0.00 81 1008.3